Location: Oberkirch
(48.5323°N, 8.0787°E)
Time: 07:28:14
(UTC+00:00)

COSMOS 2455 - Pass Details

Date: 08 November 2025
Orbit: 898 x 910 km, 67.1° (Epoch: 13 December)

Event Time Altitude Azimuth Distance (km) Brightness Sun altitude
Exits shadow 03:45:06 44° 335° (NNW) 1,239 3.3 -26.6°
Drops below altitude 10° 03:50:10 10° 27° (NNE) 2,606 5.6 -25.8°
Sets 03:52:48 0° 34° (NE) 3,551 6.4 -25.3°
